Location: Ferchesar
(52.6477°N, 12.4298°E)
Time: 09:05:41
(UTC+01:00)

Tiros 1 despin weight - Pass Details

Date: 10 December 2021
Orbit: 592 x 641 km, 48.2° (Epoch: 19 January)

Event Time Altitude Azimuth Distance (km) Brightness Sun altitude
Rises 12:55:46 0° 251° (WSW) 2,846 ? 13.5°
Reaches altitude 10° 12:58:08 10° 245° (WSW) 1,937 ? 13.5°
Maximum altitude 13:02:22 45° 173° (S) 811 ? 13.3°
Drops below altitude 10° 13:06:35 10° 100° (E) 1,924 ? 13.1°
Sets 13:08:55 0° 94° (E) 2,824 ? 13.1°
